M I D A S
Marine Information and Data Acquisition System
Tripno 754 of the Zeeleeuw from 2004-07-30 06:45:21 to 2004-07-30 12:54:01
Back to CruiseResearch ActivitiesStationsMapUnderway DataData graphs

EquipmentUnitsComments
TimeDGPSUTC
LatitudeDGPSDM.mWGS84
LongitudeDGPSDM.mWGS84
SpeedMeteo Stationm/sRelative wind speed
DirectionMeteo StationdegRelative wind direction
TemperatureMeteo Stationdeg CelciusAir temperature
PressureMeteo StationPaAtmospheric pressure
HumidityMeteo Station%Relative humidity
Missing or incorrect values are displayed as -999
Metereological data collected by the RV Zeeleeuw from 2004-07-30 06:45:21 to 2004-07-30 12:54:01
Time Latitude Longitude Speed Direction Temperature Pressure Humidity
2004-07-30 06:46 51°16.476 2°53.154 13 341 19.3 101730 78
2004-07-30 06:47 51°16.663 2°52.986 13.4 346 19.3 101730 79
2004-07-30 06:48 51°16.85 2°52.817 12 345 19.3 101730 79
2004-07-30 06:49 51°17.027 2°52.644 12.1 350 19.3 101730 79
2004-07-30 06:50 51°17.211 2°52.462 13 346 19.3 101730 78
2004-07-30 06:51 51°17.39 2°52.286 12.3 349 19.3 101740 79
2004-07-30 06:52 51°17.573 2°52.102 11.1 354 19.3 101730 79
2004-07-30 06:53 51°17.751 2°51.924 12.6 349 19.3 101730 79
2004-07-30 06:54 51°17.949 2°51.818 11.9 333 19.3 101740 80
2004-07-30 06:55 51°18.129 2°51.929 8.1 316 19.2 101740 80
2004-07-30 06:56 51°18.227 2°52.209 6 43 19.2 101750 80
2004-07-30 06:57 51°18.298 2°52.515 5.5 308 19.2 101750 80
2004-07-30 06:58 51°18.369 2°52.825 5.9 303 19.2 101760 80
2004-07-30 06:59 51°18.438 2°53.135 5.7 305 19.2 101760 80
2004-07-30 07:00 51°18.509 2°53.451 5.9 304 19.2 101760 81
2004-07-30 07:01 51°18.578 2°53.755 6.8 292 19.2 101770 81
2004-07-30 07:02 51°18.656 2°54.065 6 287 19.3 101780 82
2004-07-30 07:03 51°18.734 2°54.368 5.9 281 19.3 101790 82
2004-07-30 07:04 51°18.807 2°54.666 5.8 278 19.3 101790 82
2004-07-30 07:05 51°18.885 2°54.968 7.5 274 19.3 101790 82
2004-07-30 07:06 51°18.961 2°55.27 6.4 290 19.3 101790 82
2004-07-30 07:07 51°19.039 2°55.578 7 289 19.3 101780 82
2004-07-30 07:08 51°19.116 2°55.884 7.4 293 19.3 101780 82
2004-07-30 07:09 51°19.191 2°56.185 7.2 294 19.3 101770 82
2004-07-30 07:10 51°19.267 2°56.496 7.4 298 19.3 101770 82
2004-07-30 07:11 51°19.332 2°56.781 6 271 19.3 101770 82
2004-07-30 07:12 51°19.276 2°56.895 6 133 19.3 101780 82
2004-07-30 07:13 51°19.197 2°56.848 8 67 19.3 101780 83
2004-07-30 07:14 51°19.174 2°56.725 10.7 11 19.2 101770 82
2004-07-30 07:15 51°19.179 2°56.618 10.1 40 19.3 101770 82
2004-07-30 07:16 51°19.157 2°56.582 10.1 88 19.2 101760 81
2004-07-30 07:17 51°19.134 2°56.567 8.2 111 19.1 101760 81
2004-07-30 07:18 51°19.108 2°56.552 7.3 125 19.2 101770 81
2004-07-30 07:19 51°19.078 2°56.528 8.4 95 19.2 101760 82
2004-07-30 07:20 51°19.044 2°56.45 10.2 38 19.1 101750 80
2004-07-30 07:21 51°19.053 2°56.362 10.2 347 19.1 101750 77
2004-07-30 07:22 51°19.092 2°56.312 9.3 336 19.1 101750 77
2004-07-30 07:23 51°19.115 2°56.268 8.2 5 19.2 101750 78
2004-07-30 07:24 51°19.114 2°56.22 6.3 31 19.2 101760 78
2004-07-30 07:25 51°19.093 2°56.219 5.9 50 19.2 101770 80
2004-07-30 07:26 51°19.074 2°56.209 6.4 66 19.1 101760 80
2004-07-30 07:27 51°19.053 2°56.188 6.5 75 19.1 101770 81
2004-07-30 07:28 51°19.031 2°56.166 5.6 104 19 101770 82
2004-07-30 07:29 51°19.008 2°56.143 4.9 111 19.1 101770 82
2004-07-30 07:30 51°18.986 2°56.12 4.6 122 19 101770 83
2004-07-30 07:31 51°18.961 2°56.094 4 112 19.1 101770 83
2004-07-30 07:32 51°18.937 2°56.066 4.4 108 19.1 101770 83
2004-07-30 07:33 51°18.915 2°56.037 4.6 104 19.1 101770 83
2004-07-30 07:34 51°18.892 2°56.008 5.8 88 19.1 101780 83
2004-07-30 07:35 51°18.87 2°55.979 5.8 106 19.1 101770 83
2004-07-30 07:36 51°18.847 2°55.949 4.6 102 19.1 101770 83
2004-07-30 07:37 51°18.825 2°55.919 5.4 94 19.2 101770 83
2004-07-30 07:38 51°18.804 2°55.888 5.8 88 19.1 101770 82
2004-07-30 07:39 51°18.783 2°55.862 4.5 92 19.1 101770 83
2004-07-30 07:40 51°18.763 2°55.839 4.2 107 19.1 101770 83
2004-07-30 07:41 51°18.743 2°55.816 4.6 98 19.1 101770 82
2004-07-30 07:42 51°18.722 2°55.79 4.4 100 19.1 101770 82
2004-07-30 07:43 51°18.699 2°55.725 6 46 19.1 101770 82
2004-07-30 07:44 51°18.739 2°55.606 8.1 352 19.1 101770 82
2004-07-30 07:45 51°18.846 2°55.676 8.2 319 19.2 101770 82
2004-07-30 07:46 51°18.981 2°55.896 9.2 330 19.2 101770 82
2004-07-30 07:47 51°19.113 2°56.155 8.8 324 19.2 101770 81
2004-07-30 07:48 51°19.238 2°56.418 8.1 327 19.2 101780 82
2004-07-30 07:49 51°19.32 2°56.728 7.5 332 19.2 101780 82
2004-07-30 07:50 51°19.395 2°57.024 7 333 19.2 101780 82
2004-07-30 07:51 51°19.474 2°57.333 7.2 338 19.2 101780 82
2004-07-30 07:52 51°19.551 2°57.638 7.5 338 19.2 101780 82
2004-07-30 07:53 51°19.628 2°57.932 7.7 335 19.2 101780 80
2004-07-30 07:54 51°19.703 2°58.233 7.2 340 19.3 101780 79
2004-07-30 07:55 51°19.782 2°58.539 7.9 338 19.3 101770 78
2004-07-30 07:56 51°19.861 2°58.848 7.6 335 19.4 101770 77
2004-07-30 07:57 51°19.939 2°59.142 8.7 334 19.5 101770 77
2004-07-30 07:58 51°20.016 2°59.454 8.5 330 19.5 101770 76
2004-07-30 07:59 51°20.092 2°59.76 7.8 332 19.5 101770 76
2004-07-30 08:00 51°20.167 3°0.062 8.5 324 19.5 101770 76
2004-07-30 08:01 51°20.244 3°0.383 8 328 19.5 101780 76
2004-07-30 08:02 51°20.321 3°0.683 8.5 328 19.4 101780 77
2004-07-30 08:03 51°20.401 3°1.001 7.8 331 19.5 101780 77
2004-07-30 08:04 51°20.479 3°1.32 7.6 324 19.5 101780 76
2004-07-30 08:05 51°20.544 3°1.629 7.5 329 19.5 101780 76
2004-07-30 08:06 51°20.614 3°1.949 6.5 333 19.5 101790 76
2004-07-30 08:07 51°20.686 3°2.269 6.9 331 19.5 101790 76
2004-07-30 08:08 51°20.759 3°2.592 7 333 19.6 101790 76
2004-07-30 08:09 51°20.831 3°2.915 7.4 327 19.6 101790 76
2004-07-30 08:10 51°20.91 3°3.234 7.1 327 19.6 101790 75
2004-07-30 08:11 51°20.988 3°3.554 7.1 326 19.6 101800 75
2004-07-30 08:12 51°21.07 3°3.872 7.4 327 19.7 101800 75
2004-07-30 08:13 51°21.147 3°4.177 5 307 19.7 101800 75
2004-07-30 08:14 51°21.097 3°4.314 3 117 19.8 101810 76
2004-07-30 08:15 51°21.024 3°4.26 5.3 64 19.8 101800 76
2004-07-30 08:16 51°21.024 3°4.154 6.2 21 19.7 101800 77
2004-07-30 08:17 51°21.039 3°4.065 6.9 36 19.7 101800 76
2004-07-30 08:18 51°21.029 3°4.013 4.9 77 19.7 101810 77
2004-07-30 08:19 51°21.011 3°3.991 5.7 98 19.5 101820 77
2004-07-30 08:20 51°20.991 3°3.971 5 92 19.5 101820 78
2004-07-30 08:21 51°20.973 3°3.952 5.2 84 19.4 101820 78
2004-07-30 08:22 51°20.956 3°3.933 5.1 68 19.4 101820 79
2004-07-30 08:23 51°20.941 3°3.917 4.7 73 19.3 101820 80
2004-07-30 08:24 51°20.929 3°3.913 4.8 86 19.2 101830 79
2004-07-30 08:25 51°20.917 3°3.912 4.2 96 19.1 101820 78
2004-07-30 08:26 51°20.903 3°3.908 3.8 99 19.1 101830 78
2004-07-30 08:27 51°20.881 3°3.886 4.2 70 19.2 101830 79
2004-07-30 08:28 51°20.85 3°3.817 5.5 53 19.2 101820 80
2004-07-30 08:29 51°20.821 3°3.719 6.5 35 19.1 101830 79
2004-07-30 08:30 51°20.83 3°3.613 6.8 4 19.1 101830 80
2004-07-30 08:31 51°20.873 3°3.5 8.4 358 19.2 101830 79
2004-07-30 08:32 51°20.923 3°3.358 7 14 19.3 101830 79
2004-07-30 08:33 51°20.96 3°3.271 5.6 352 19.3 101830 79
2004-07-30 08:34 51°20.981 3°3.245 3.3 353 19.4 101820 79
2004-07-30 08:35 51°20.974 3°3.248 3.9 3 19.4 101830 79
2004-07-30 08:36 51°20.974 3°3.237 4.3 22 19.5 101820 78
2004-07-30 08:37 51°20.971 3°3.216 4.4 47 19.5 101820 78
2004-07-30 08:38 51°20.962 3°3.199 4.1 54 19.4 101830 79
2004-07-30 08:39 51°20.95 3°3.185 4.3 61 19.3 101830 78
2004-07-30 08:40 51°20.938 3°3.172 3.4 60 19.2 101830 78
2004-07-30 08:41 51°20.926 3°3.161 4.1 47 19.2 101830 78
2004-07-30 08:42 51°20.915 3°3.151 3.9 47 19.2 101830 78
2004-07-30 08:43 51°20.904 3°3.141 4.1 39 19.1 101830 78
2004-07-30 08:44 51°20.895 3°3.132 3.8 40 19.2 101830 78
2004-07-30 08:45 51°20.886 3°3.125 3.5 38 19.1 101830 79
2004-07-30 08:46 51°20.89 3°3.078 6.3   19.1 101830 79
2004-07-30 08:47 51°20.994 3°3.072 5.4 317 19.2 101820 79
2004-07-30 08:48 51°21.082 3°3.325 6.6 335 19.2 101830 79
2004-07-30 08:49 51°21.158 3°3.643 6.5 338 19.3 101830 79
2004-07-30 08:50 51°21.23 3°3.99 6.2 339 19.3 101830 78
2004-07-30 08:51 51°21.3 3°4.326 5.9 332 19.3 101820 79
2004-07-30 08:52 51°21.371 3°4.676 5.8 337 19.3 101830 78
2004-07-30 08:53 51°21.444 3°5.011 5.5 332 19.3 101820 78
2004-07-30 08:54 51°21.515 3°5.354 5.7 339 19.3 101830 79
2004-07-30 08:55 51°21.593 3°5.703 5.3 335 19.4 101820 78
2004-07-30 08:56 51°21.668 3°6.029 4.9 335 19.4 101820 78
2004-07-30 08:57 51°21.748 3°6.366 5.7 339 19.4 101820 77
2004-07-30 08:58 51°21.824 3°6.705 5.9 337 19.4 101830 77
2004-07-30 08:59 51°21.876 3°7.069 4.4 338 19.4 101830 76
2004-07-30 09:00 51°21.93 3°7.415 4.6 337 19.5 101820 75
2004-07-30 09:01 51°21.981 3°7.764 4.7 342 19.5 101820 75
2004-07-30 09:02 51°22.031 3°8.12 4.6 335 19.6 101820 75
2004-07-30 09:03 51°22.082 3°8.481 4.9 337 19.7 101820 74
2004-07-30 09:04 51°22.132 3°8.841 5 338 19.8 101820 74
2004-07-30 09:05 51°22.182 3°9.202 4.9 348 19.9 101820 73
2004-07-30 09:06 51°22.229 3°9.567 4.9 350 20 101820 73
2004-07-30 09:07 51°22.273 3°9.944 4.7 357 20 101830 73
2004-07-30 09:08 51°22.283 3°10.321 4.1 8 20 101830 72
2004-07-30 09:09 51°22.267 3°10.694 5 4 20 101830 72
2004-07-30 09:10 51°22.298 3°11.079 5.5 2 20 101830 73
2004-07-30 09:11 51°22.353 3°11.456 6.4 360 19.9 101830 74
2004-07-30 09:12 51°22.426 3°11.826 6.6 359 19.9 101830 74
2004-07-30 09:13 51°22.509 3°12.181 6.6 359 19.9 101820 75
2004-07-30 09:14 51°22.598 3°12.544 6.2 354 19.8 101820 76
2004-07-30 09:15 51°22.666 3°12.906 5.4 356 19.8 101830 76
2004-07-30 09:16 51°22.723 3°13.284 5.4 357 19.8 101830 77
2004-07-30 09:17 51°22.779 3°13.665 5.6 357 19.8 101830 77
2004-07-30 09:18 51°22.832 3°14.042 5.3 357 19.8 101830 77
2004-07-30 09:19 51°22.88 3°14.404 5.4 360 19.8 101830 78
2004-07-30 09:20 51°22.934 3°14.797 5.4 357 19.8 101830 78
2004-07-30 09:21 51°22.986 3°15.172 4.7 358 19.8 101830 78
2004-07-30 09:22 51°23.043 3°15.558 3.6 3 19.8 101830 78
2004-07-30 09:23 51°22.986 3°15.739 3.4 60 19.8 101830 78
2004-07-30 09:24 51°22.926 3°15.725 4.5 27 19.7 101830 79
2004-07-30 09:25 51°22.942 3°15.657 4.5 1 19.7 101830 79
2004-07-30 09:26 51°22.973 3°15.605 3.7 9 19.7 101830 79
2004-07-30 09:27 51°22.975 3°15.621 2.5 41 19.8 101830 78
2004-07-30 09:28 51°22.97 3°15.645 3 38 19.7 101830 79
2004-07-30 09:29 51°22.967 3°15.613 3.4 1 19.7 101830 79
2004-07-30 09:30 51°23.011 3°15.606 3 324 19.7 101830 79
2004-07-30 09:31 51°23.062 3°15.702 0.9 291 19.7 101830 79
2004-07-30 09:32 51°23.07 3°15.857 0.7 291 19.9 101830 80
2004-07-30 09:33 51°23.074 3°15.969 1.6 204 20 101830 79
2004-07-30 09:34 51°23.076 3°16.017 1.4 205 20 101830 78
2004-07-30 09:35 51°23.079 3°16.066 1.4 207 20 101830 78
2004-07-30 09:36 51°23.081 3°16.122 1 176 20 101830 78
2004-07-30 09:37 51°23.083 3°16.185 1.5 181 20.1 101830 78
2004-07-30 09:38 51°23.084 3°16.247 0.9 176 20.1 101830 77
2004-07-30 09:39 51°23.087 3°16.315 0.6 179 20.2 101830 76
2004-07-30 09:40 51°23.09 3°16.384 0.5 179 20.4 101840 76
2004-07-30 09:41 51°23.094 3°16.452 1.3 216 20.5 101840 75
2004-07-30 09:42 51°23.1 3°16.527 1.1 213 20.5 101840 73
2004-07-30 09:43 51°23.107 3°16.598 1.1 218 20.5 101840 73
2004-07-30 09:44 51°23.163 3°16.715 3.7 338 20.5 101840 73
2004-07-30 09:45 51°23.32 3°16.702 7.4 356 20.4 101830 73
2004-07-30 09:46 51°23.529 3°16.618 7.8 357 20.3 101830 74
2004-07-30 09:47 51°23.74 3°16.539 9.1 353 20.2 101830 74
2004-07-30 09:48 51°23.946 3°16.47 8.9 351 20.1 101820 74
2004-07-30 09:49 51°24.154 3°16.37 9.7 355 20 101830 75
2004-07-30 09:50 51°24.353 3°16.273 8.5 354 19.9 101830 75
2004-07-30 09:51 51°24.555 3°16.168 8.8 357 19.8 101830 75
2004-07-30 09:52 51°24.716 3°15.991 9 4 19.7 101820 75
2004-07-30 09:53 51°24.851 3°15.756 9 10 19.7 101820 74
2004-07-30 09:54 51°24.921 3°15.485 8.5 18 19.7 101820 72
2004-07-30 09:55 51°24.941 3°15.179 7.9 20 19.7 101820 71
2004-07-30 09:56 51°24.923 3°14.883 7.8 22 19.7 101820 71
2004-07-30 09:57 51°24.891 3°14.578 7.9 21 19.8 101820 72
2004-07-30 09:58 51°24.862 3°14.278 7.9 19 19.8 101820 73
2004-07-30 09:59 51°24.836 3°13.978 8 20 19.8 101820 73
2004-07-30 10:00 51°24.812 3°13.682 7.8 20 19.8 101820 74
2004-07-30 10:01 51°24.786 3°13.378 8 22 19.8 101820 75
2004-07-30 10:02 51°24.753 3°13.086 8.4 21 19.8 101820 75
2004-07-30 10:03 51°24.725 3°12.788 8.7 20 19.8 101820 75
2004-07-30 10:04 51°24.705 3°12.485 7.8 20 19.8 101820 75
2004-07-30 10:05 51°24.684 3°12.182 8 21 19.8 101820 76
2004-07-30 10:06 51°24.664 3°11.885 8.3 18 19.8 101820 76
2004-07-30 10:07 51°24.643 3°11.575 8.3 20 19.8 101820 77
2004-07-30 10:08 51°24.621 3°11.27 8.6 22 19.8 101820 77
2004-07-30 10:09 51°24.602 3°10.97 8.9 15 19.8 101820 77
2004-07-30 10:10 51°24.579 3°10.659 8.5 18 19.8 101820 78
2004-07-30 10:11 51°24.561 3°10.355 8.4 14 19.8 101820 78
2004-07-30 10:12 51°24.546 3°10.051 8.5 16 19.7 101830 78
2004-07-30 10:13 51°24.533 3°9.746 8.3 17 19.7 101820 78
2004-07-30 10:14 51°24.519 3°9.451 8.6 15 19.7 101830 78
2004-07-30 10:15 51°24.505 3°9.137 8.6 13 19.7 101830 78
2004-07-30 10:16 51°24.491 3°8.833 9.3 14 19.7 101830 78
2004-07-30 10:17 51°24.496 3°8.529 8.5 13 19.7 101830 78
2004-07-30 10:18 51°24.513 3°8.225 8.7 13 19.6 101830 78
2004-07-30 10:19 51°24.54 3°7.921 8.6 13 19.6 101830 78
2004-07-30 10:20 51°24.566 3°7.616 9.2 13 19.6 101830 78
2004-07-30 10:21 51°24.601 3°7.322 9.2 10 19.6 101830 79
2004-07-30 10:22 51°24.636 3°7.007 9.1 10 19.6 101820 79
2004-07-30 10:23 51°24.672 3°6.701 9.1 9 19.5 101830 79
2004-07-30 10:24 51°24.711 3°6.399 9.1 10 19.5 101820 79
2004-07-30 10:25 51°24.759 3°6.103 9.9 8 19.5 101830 79
2004-07-30 10:26 51°24.811 3°5.781 9 8 19.4 101820 79
2004-07-30 10:27 51°24.861 3°5.484 9 6 19.5 101830 79
2004-07-30 10:28 51°24.913 3°5.168 9.1 5 19.4 101820 80
2004-07-30 10:29 51°24.959 3°4.859 9.3 3 19.4 101830 80
2004-07-30 10:30 51°25.005 3°4.55 9.7 3 19.4 101830 80
2004-07-30 10:31 51°25.048 3°4.239 10 5 19.4 101820 80
2004-07-30 10:32 51°25.094 3°3.928 10.1 7 19.4 101830 80
2004-07-30 10:33 51°25.127 3°3.624 10 10 19.4 101820 81
2004-07-30 10:34 51°25.151 3°3.296 10.1 7 19.3 101820 81
2004-07-30 10:35 51°25.159 3°2.978 10.1 10 19.3 101820 81
2004-07-30 10:36 51°25.162 3°2.657 10.2 11 19.3 101820 81
2004-07-30 10:37 51°25.166 3°2.334 10.2 10 19.3 101820 81
2004-07-30 10:38 51°25.171 3°2.011 10.2 8 19.3 101820 81
2004-07-30 10:39 51°25.174 3°1.693 11 8 19.3 101810 81
2004-07-30 10:40 51°25.178 3°1.371 10.9 10 19.3 101820 82
2004-07-30 10:41 51°25.185 3°1.043 10.7 9 19.2 101820 82
2004-07-30 10:42 51°25.191 3°0.718 10.3 6 19.2 101820 82
2004-07-30 10:43 51°25.198 3°0.392 11.6 8 19.2 101820 82
2004-07-30 10:44 51°25.203 3°0.066 10.7 13 19.1 101820 82
2004-07-30 10:45 51°25.199 2°59.747 11.1 12 19.2 101820 82
2004-07-30 10:46 51°25.197 2°59.426 11 13 19.1 101820 82
2004-07-30 10:47 51°25.208 2°59.098 11.2 12 19.1 101820 82
2004-07-30 10:48 51°25.224 2°58.788 11 10 19.1 101820 83
2004-07-30 10:49 51°25.239 2°58.468 11.2 14 19.1 101830 82
2004-07-30 10:50 51°25.254 2°58.143 10.9 10 19.1 101820 82
2004-07-30 10:51 51°25.271 2°57.836 10.8 13 19.1 101820 82
2004-07-30 10:52 51°25.284 2°57.503 10.9 14 19.1 101820 83
2004-07-30 10:53 51°25.295 2°57.181 10.8 10 19.1 101820 83
2004-07-30 10:54 51°25.31 2°56.857 11.5 14 19.1 101830 83
2004-07-30 10:55 51°25.329 2°56.533 11.7 11 19.1 101820 82
2004-07-30 10:56 51°25.351 2°56.212 12 14 19.1 101830 82
2004-07-30 10:57 51°25.374 2°55.881 10.9 10 19.1 101830 82
2004-07-30 10:58 51°25.398 2°55.555 11.6 12 19.1 101840 82
2004-07-30 10:59 51°25.425 2°55.227 11.5 13 19.1 101840 83
2004-07-30 11:00 51°25.462 2°54.898 11.5 11 19.1 101840 83
2004-07-30 11:01 51°25.513 2°54.584 11.7 10 19.1 101840 83
2004-07-30 11:02 51°25.569 2°54.248 11.5 9 19.1 101830 83
2004-07-30 11:03 51°25.623 2°53.924 12.4 10 19.1 101840 83
2004-07-30 11:04 51°25.677 2°53.6 12.3 9 19.1 101840 83
2004-07-30 11:05 51°25.732 2°53.276 11.8 9 19 101840 84
2004-07-30 11:06 51°25.759 2°52.953 11.6 14 19 101850 83
2004-07-30 11:07 51°25.774 2°52.63 11.8 15 19 101850 84
2004-07-30 11:08 51°25.788 2°52.308 11.6 16 19.1 101850 84
2004-07-30 11:09 51°25.805 2°51.992 12.4 18 19.1 101860 83
2004-07-30 11:10 51°25.82 2°51.664 12.5 18 19.1 101850 83
2004-07-30 11:11 51°25.836 2°51.354 11.7 15 19.1 101850 83
2004-07-30 11:12 51°25.849 2°51.03 11.5 17 19.2 101850 83
2004-07-30 11:13 51°25.856 2°50.707 11.8 18 19.1 101850 82
2004-07-30 11:14 51°25.865 2°50.388 12.4 17 19.2 101850 83
2004-07-30 11:15 51°25.875 2°50.07 11.6 17 19.1 101850 83
2004-07-30 11:16 51°25.871 2°49.766 11.8 20 19.2 101850 83
2004-07-30 11:17 51°25.863 2°49.441 11.6 23 19.2 101850 83
2004-07-30 11:18 51°25.825 2°49.137 10.5 24 19.3 101850 83
2004-07-30 11:19 51°25.773 2°48.842 9.6 24 19.3 101850 83
2004-07-30 11:20 51°25.698 2°48.565 9.8 24 19.3 101850 83
2004-07-30 11:21 51°25.615 2°48.284 10.4 29 19.3 101850 83
2004-07-30 11:22 51°25.522 2°48.018 9.6 29 19.2 101850 84
2004-07-30 11:23 51°25.419 2°47.759 9.9 31 19.2 101850 84
2004-07-30 11:24 51°25.316 2°47.499 9.5 28 19.1 101860 85
2004-07-30 11:25 51°25.213 2°47.24 10.1 32 19 101860 85
2004-07-30 11:26 51°25.11 2°46.98 10.1 30 19 101860 86
2004-07-30 11:27 51°25.011 2°46.729 9.4 28 18.9 101860 86
2004-07-30 11:28 51°24.898 2°46.467 10.6 32 18.9 101860 86
2004-07-30 11:29 51°24.785 2°46.219 9.9 31 18.9 101860 86
2004-07-30 11:30 51°24.669 2°45.97 9.9 28 18.9 101850 86
2004-07-30 11:31 51°24.545 2°45.741 9.6 30 18.9 101860 87
2004-07-30 11:32 51°24.406 2°45.508 10.1 37 18.8 101850 87
2004-07-30 11:33 51°24.229 2°45.4 7.2 47 18.7 101860 87
2004-07-30 11:34 51°24.025 2°45.404 6.5 42 18.7 101860 87
2004-07-30 11:35 51°23.818 2°45.405 7.2 40 18.6 101870 88
2004-07-30 11:36 51°23.61 2°45.4 7.1 40 18.6 101860 88
2004-07-30 11:37 51°23.401 2°45.397 7.8 40 18.6 101870 89
2004-07-30 11:38 51°23.196 2°45.389 7.7 43 18.6 101870 89
2004-07-30 11:39 51°22.984 2°45.386 7.5 51 18.6 101870 89
2004-07-30 11:40 51°22.776 2°45.384 6.9 40 18.6 101870 89
2004-07-30 11:41 51°22.568 2°45.376 6.6 49 18.6 101870 89
2004-07-30 11:42 51°22.36 2°45.37 7.3 49 18.6 101860 89
2004-07-30 11:43 51°22.152 2°45.361 7.3 48 18.6 101870 89
2004-07-30 11:44 51°21.945 2°45.357 7.1 48 18.6 101870 89
2004-07-30 11:45 51°21.737 2°45.347 7.5 48 18.6 101870 89
2004-07-30 11:46 51°21.528 2°45.34 7.7 43 18.6 101870 89
2004-07-30 11:47 51°21.319 2°45.339 7.5 44 18.7 101880 89
2004-07-30 11:48 51°21.113 2°45.335 7.1 45 18.7 101880 89
2004-07-30 11:49 51°20.908 2°45.336 7.1 49 18.7 101880 89
2004-07-30 11:50 51°20.703 2°45.335 7.2 48 18.7 101880 89
2004-07-30 11:51 51°20.498 2°45.333 7.6 47 18.7 101880 89
2004-07-30 11:52 51°20.292 2°45.335 7.6 51 18.7 101880 89
2004-07-30 11:53 51°20.095 2°45.334 7.3 50 18.7 101880 89
2004-07-30 11:54 51°19.885 2°45.333 6.7 48 18.7 101880 89
2004-07-30 11:55 51°19.681 2°45.336 6.5 52 18.7 101880 89
2004-07-30 11:56 51°19.475 2°45.335 6.6 52 18.8 101880 89
2004-07-30 11:57 51°19.268 2°45.329 7 49 18.8 101880 89
2004-07-30 11:58 51°19.058 2°45.315 7.2 50 18.8 101880 88
2004-07-30 11:59 51°18.847 2°45.308 6.9 48 18.8 101880 88
2004-07-30 12:00 51°18.636 2°45.293 6.8 51 18.8 101880 88
2004-07-30 12:01 51°18.426 2°45.276 7 45 18.8 101880 88
2004-07-30 12:02 51°18.216 2°45.265 6.8 49 18.8 101890 88
2004-07-30 12:03 51°18.012 2°45.258 6.8 51 18.8 101890 88
2004-07-30 12:04 51°17.805 2°45.25 6.9 55 18.8 101890 88
2004-07-30 12:05 51°17.592 2°45.241 6.8 50 18.8 101890 88
2004-07-30 12:06 51°17.376 2°45.228 6.9 50 18.8 101890 88
2004-07-30 12:07 51°17.176 2°45.209 7.1 55 18.9 101890 88
2004-07-30 12:08 51°16.962 2°45.19 7.3 52 18.9 101890 88
2004-07-30 12:09 51°16.755 2°45.164 7.3 57 18.9 101890 88
2004-07-30 12:10 51°16.549 2°45.197 6.2 54 18.9 101890 88
2004-07-30 12:11 51°16.342 2°45.258 5.7 57 18.9 101890 87
2004-07-30 12:12 51°16.151 2°45.405 3.5 69 18.9 101900 87
2004-07-30 12:13 51°16.01 2°45.679 1.6 16 18.9 101900 87
2004-07-30 12:14 51°15.905 2°46.01 1.6 343 19.1 101900 87
2004-07-30 12:15 51°15.809 2°46.356 2.9 346 19.3 101900 86
2004-07-30 12:16 51°15.731 2°46.717 2.7 344 19.5 101910 86
2004-07-30 12:17 51°15.655 2°47.079 3.2 345 19.6 101900 85
2004-07-30 12:18 51°15.574 2°47.431 1.9 337 19.7 101900 84
2004-07-30 12:19 51°15.495 2°47.779 2.8 349 19.9 101910 83
2004-07-30 12:20 51°15.411 2°48.123 2.1 336 20 101910 82
2004-07-30 12:21 51°15.336 2°48.474 2.3 336 20.1 101910 82
2004-07-30 12:22 51°15.273 2°48.836 2.4 346 20.2 101910 81
2004-07-30 12:23 51°15.213 2°49.198 2.9 336 20.3 101910 80
2004-07-30 12:24 51°15.156 2°49.555 3 345 20.3 101910 80
2004-07-30 12:25 51°15.102 2°49.919 2.8 334 20.3 101910 80
2004-07-30 12:26 51°15.049 2°50.282 2.6 339 20.4 101910 80
2004-07-30 12:27 51°14.996 2°50.645 2.9 329 20.4 101910 79
2004-07-30 12:28 51°14.944 2°51.01 3.6 331 20.4 101910 79
2004-07-30 12:29 51°14.896 2°51.373 2.9 335 20.4 101910 79
2004-07-30 12:30 51°14.851 2°51.735 3.4 321 20.4 101910 79
2004-07-30 12:31 51°14.81 2°52.101 3.6 335 20.4 101910 79
2004-07-30 12:32 51°14.766 2°52.465 3.1 335 20.4 101920 79
2004-07-30 12:33 51°14.726 2°52.835 3.3 331 20.4 101920 79
2004-07-30 12:34 51°14.686 2°53.2 3.2 333 20.4 101920 79
2004-07-30 12:35 51°14.664 2°53.452 1.5 247 20.3 101920 79
2004-07-30 12:36 51°14.657 2°53.599 3.3 241 20.2 101920 79
2004-07-30 12:37 51°14.665 2°53.708 3.1 249 20 101920 79
2004-07-30 12:38 51°14.68 2°53.792 3.7 247 19.8 101920 80
2004-07-30 12:39 51°14.686 2°53.927 1.4 247 19.8 101920 82
2004-07-30 12:40 51°14.608 2°54.223 2.4 353 19.8 101920 82
2004-07-30 12:41 51°14.515 2°54.538 2.4 2 19.9 101930 82
2004-07-30 12:42 51°14.425 2°54.853 1.9 14 20 101930 81
2004-07-30 12:43 51°14.325 2°55.131 1.8 22 20.1 101930 81
2004-07-30 12:44 51°14.207 2°55.343 2.4 55 20.1 101930 80
2004-07-30 12:45 51°14.084 2°55.451 2.9 94 20.1 101920 81
2004-07-30 12:46 51°13.967 2°55.533 0.8 74 20.1 101920 81
2004-07-30 12:47 51°13.851 2°55.618 2.3 95 20.3 101920 81
2004-07-30 12:48 51°13.752 2°55.719 2.2 276 20.4 101920 80
2004-07-30 12:49 51°13.691 2°55.84 1.6 213 20.5 101920 79
2004-07-30 12:50 51°13.647 2°55.948 1.6 201 20.4 101920 78
2004-07-30 12:51 51°13.619 2°56.032 2.7 201 20.3 101930 78
2004-07-30 12:52 51°13.6 2°56.091 2 188 20.3 101930 78
2004-07-30 12:53 51°13.597 2°56.096 3.8 201 20.4 101920 78